Вернуться в каталог

STARLINK-36744

АктивенСвязьVLEO
NORAD 67987·PAYLOAD·🇺🇸 United States

Запущен Feb 27, 2026 с Vandenberg Space Force Base

Loading…

Ближайшие Пролёты (ближайшие 24 часа)

TLE

СвежийSource: CelesTrak SupGP

Эпоха: Sep 14, 2026, 22:49 UTC

1 67987C 26039B   26257.95118056  .00057142  00000+0  20696-2 0  2574
2 67987  43.0004  60.4235 0001439 274.2434 121.2749 15.27550815    19

Отслеживайте STARLINK-36744 в реальном времени с AllMySat

Download on the App Store